Wind_Speed
46 46 46 47 48 48 48 49 49 48 47 47 47 47 47 47 47 47 47 47 47 47 48 48 49 49 49 50 50 50 50 51 50 49 48 48 49 49
47 47 48 49 49 49 49 49 49 49 48 47 47 47 48 47 47 47 47 48 48 48 48 48 49 50 50 50 50 50 50 51 51 50 50 48 49 50
49 49 49 50 49 49 49 49 49 49 49 47 47 48 48 48 48 48 48 48 48 48 49 49 49 50 50 49 49 50 50 51 51 50 49 48 48 48
50 50 50 50 50 50 50 50 50 50 50 49 49 49 48 49 49 49 49 49 48 49 49 49 49 49 49 49 49 50 50 50 49 49 49 49 48 49
51 51 51 50 50 50 50 50 50 51 51 51 50 49 49 49 49 49 49 49 48 48 48 49 49 49 50 50 50 50 50 50 50 49 49 49 49 49
51 51 51 51 51 51 50 50 50 50 50 50 49 49 49 49 49 49 48 48 48 48 49 49 49 49 50 50 50 50 50 50 50 51 50 50 49 49
51 51 52 52 51 51 50 50 50 50 50 49 49 49 50 50 49 49 48 48 48 49 49 49 49 49 49 50 50 50 50 51 51 51 51 50 49 49
50 50 51 51 51 51 51 50 50 50 49 49 49 50 50 50 49 49 49 48 48 48 48 48 48 48 48 49 49 49 50 51 51 50 50 50 49 49
50 50 50 50 50 50 49 49 49 50 50 49 49 49 49 49 49 49 48 48 48 47 47 47 47 47 47 47 48 48 48 49 49 49 49 49 49 48
49 49 49 48 48 48 48 48 48 48 48 49 49 49 48 48 49 48 48 47 47 47 47 46 46 46 47 47 47 48 48 47 47 47 48 48 48 48
47 47 47 47 47 47 46 46 46 46 47 48 48 48 48 48 48 47 47 47 46 46 46 46 45 45 45 45 46 46 46 46 46 46 47 47 48 48
47 47 47 47 46 46 46 45 45 45 46 46 46 47 47 47 47 46 46 46 46 45 45 45 45 45 44 43 43 44 44 44 44 45 45 46 47 48
46 45 45 45 45 44 44 44 44 44 43 43 43 44 45 45 44 43 43 44 44 43 43 43 43 43 42 41 41 42 42 42 42 43 44 44 45 46
44 43 43 43 42 43 43 42 42 42 41 41 41 41 42 42 41 41 41 41 41 41 41 41 41 41 40 40 39 40 41 41 41 42 43 43 44 44
42 41 40 40 40 40 40 40 40 40 39 39 39 39 40 40 40 39 39 39 39 39 39 39 39 39 39 39 38 39 39 40 41 41 41 42 42 43
41 40 39 38 38 38 38 38 38 38 38 38 37 37 37 37 38 38 37 37 37 37 38 38 38 38 38 38 38 38 38 39 39 39 40 40 41 42
39 38 37 36 36 37 37 37 37 36 36 36 36 36 35 35 35 35 35 35 36 36 36 37 37 36 36 37 37 37 37 37 38 38 38 38 39 40
38 37 36 35 35 35 35 35 35 35 35 35 34 34 34 34 33 33 33 34 35 35 35 34 34 34 35 35 36 36 36 36 36 37 37 37 37 38
36 36 35 34 34 33 33 33 33 33 33 32 32 32 32 32 32 32 32 32 33 33 33 33 33 33 34 33 34 35 35 34 34 34 35 34 34 34
35 34 33 32 32 32 32 32 32 32 31 30 31 31 31 30 30 30 30 31 31 31 31 32 32 32 32 32 32 33 34 34 34 34 33 33 32 33
33 32 32 31 31 30 30 30 30 29 29 29 30 30 29 29 29 29 29 29 29 29 29 30 30 30 31 31 31 31 32 33 34 34 33 32 32 32
30 30 30 30 29 29 29 28 28 28 28 28 28 28 28 28 28 28 28 27 27 28 28 28 29 29 30 30 30 31 31 31 31 32 32 32 32 31
28 29 29 29 29 28 28 28 27 27 27 27 27 27 27 27 27 27 27 27 27 27 27 28 28 28 28 29 29 29 29 29 29 30 30 31 31 31
Wind_Direction
276 276 277 278 278 279 279 279 279 279 278 278 278 278 277 277 276 276 276 276 276 276 275 274 274 273 273 273 272 271 271 270 270 270 270 269 267 267
276 277 277 278 278 279 279 279 279 279 279 278 278 278 278 276 276 277 277 277 277 276 275 274 273 273 273 273 272 271 271 270 270 270 270 269 267 266
277 277 277 277 278 279 279 279 279 279 279 279 278 278 278 277 278 278 278 277 277 276 275 274 273 273 273 273 273 272 271 270 270 270 269 269 267 266
277 277 278 278 278 278 279 279 279 279 278 278 278 278 278 278 278 278 278 277 276 276 276 275 274 274 273 273 273 272 271 270 269 269 269 268 267 266
278 278 278 278 278 278 279 279 279 279 278 278 278 278 278 278 278 278 277 276 275 275 275 275 275 274 274 273 273 273 272 271 269 267 268 267 267 267
278 278 277 277 278 278 278 279 280 279 279 278 278 278 278 278 278 278 276 275 275 275 275 275 275 274 273 273 273 273 272 271 270 268 267 267 267 266
279 278 277 277 278 278 278 279 279 279 279 278 278 278 278 278 278 277 276 276 276 275 275 275 275 274 273 273 273 272 272 271 270 268 267 266 266 266
280 279 278 278 278 278 279 279 279 279 278 278 279 279 279 278 277 277 277 277 277 276 276 275 275 274 274 273 273 272 272 271 269 268 266 266 266 266
281 281 280 279 279 279 279 278 278 278 278 278 279 279 278 277 277 277 277 278 278 277 276 276 275 275 275 274 274 273 273 271 269 268 267 266 266 265
281 281 281 280 279 278 278 279 279 278 278 278 278 278 278 278 278 278 278 279 278 278 277 277 276 276 275 274 274 273 272 271 269 268 267 266 265 265
281 281 281 280 278 277 278 278 278 278 278 278 277 278 278 279 279 279 278 278 278 278 278 278 277 277 276 276 275 273 272 271 270 270 269 267 266 265
280 281 280 280 279 278 277 278 278 278 278 278 278 278 278 279 279 279 279 279 279 278 277 277 277 277 277 276 275 274 272 271 271 271 270 269 267 267
280 280 279 278 277 277 277 278 278 278 279 279 279 279 279 279 279 279 279 279 279 278 277 277 277 277 278 276 275 274 273 272 272 272 272 271 269 268
280 280 280 278 277 277 277 278 279 279 279 279 279 279 279 279 279 279 279 279 279 279 278 278 279 278 278 277 276 275 274 273 274 274 273 272 270 270
280 279 279 278 278 278 278 278 278 279 279 279 279 279 279 279 279 279 280 279 278 279 280 279 280 279 278 278 277 276 275 275 276 276 275 273 272 270
279 278 278 278 278 278 279 278 279 279 279 279 279 280 280 280 280 279 279 279 279 280 280 280 280 280 279 279 279 278 278 278 278 278 276 274 272 271
277 277 277 278 280 280 279 278 279 279 280 280 279 280 281 281 280 280 280 279 280 281 280 280 280 280 280 280 280 280 280 280 280 279 277 275 274 273
276 277 278 278 279 279 278 278 279 279 280 280 280 280 281 281 280 280 280 280 281 281 281 280 280 281 282 282 282 282 281 281 281 281 280 278 275 275
277 277 278 278 279 278 278 278 279 279 280 280 280 280 280 280 280 280 281 281 281 281 281 282 283 282 282 282 283 283 283 282 283 283 282 280 278 276
277 278 278 278 278 277 277 278 279 280 280 279 279 280 280 280 280 281 282 282 282 281 282 283 283 283 284 285 285 285 285 285 286 285 283 281 280 279
277 277 277 277 277 276 276 277 279 279 279 280 280 280 280 280 280 281 282 283 284 284 284 284 284 284 285 286 287 287 287 287 288 286 284 282 281 280
276 275 276 276 276 276 277 278 279 280 281 281 281 280 280 279 279 281 283 284 285 285 285 286 285 286 287 288 289 290 290 290 289 288 287 286 284 283
275 275 276 275 274 275 276 278 279 280 280 281 281 280 280 279 278 280 282 284 285 286 286 287 288 288 289 290 291 291 292 292 291 290 289 288 287 286
Height
5699 5698 5698 5697 5695 5694 5693 5691 5691 5691 5691 5689 5687 5686 5684 5683 5682 5682 5681 5680 5680 5680 5680 5679 5679 5679 5679 5679 5679 5679 5680 5680 5680 5680 5680 5680 5681 5682
5687 5686 5685 5684 5682 5681 5679 5678 5677 5676 5676 5676 5674 5673 5671 5670 5669 5668 5668 5667 5666 5666 5666 5665 5665 5665 5665 5665 5665 5665 5665 5666 5666 5666 5666 5666 5667 5668
5673 5672 5671 5670 5668 5667 5666 5665 5663 5662 5662 5662 5660 5659 5658 5657 5656 5655 5654 5653 5653 5652 5651 5651 5651 5651 5650 5650 5650 5650 5651 5651 5652 5652 5652 5653 5653 5654
5659 5658 5657 5655 5654 5653 5652 5651 5650 5648 5648 5648 5647 5645 5644 5643 5642 5641 5640 5639 5639 5638 5637 5636 5636 5636 5636 5636 5635 5636 5636 5636 5637 5638 5638 5639 5639 5640
5644 5643 5642 5641 5640 5639 5638 5636 5635 5634 5633 5633 5633 5631 5630 5629 5628 5627 5626 5625 5624 5623 5623 5622 5622 5621 5621 5621 5621 5621 5621 5622 5622 5623 5623 5624 5624 5625
5630 5628 5627 5626 5625 5624 5623 5622 5620 5619 5618 5618 5618 5617 5615 5614 5613 5612 5612 5611 5610 5609 5608 5607 5607 5606 5606 5606 5606 5606 5606 5606 5606 5607 5608 5609 5609 5610
5615 5614 5613 5611 5610 5609 5608 5607 5606 5605 5604 5603 5603 5602 5601 5599 5598 5597 5597 5596 5595 5594 5593 5592 5592 5592 5591 5590 5590 5590 5590 5590 5591 5591 5592 5593 5594 5595
5601 5599 5598 5596 5595 5594 5592 5591 5591 5590 5589 5588 5588 5587 5586 5585 5583 5582 5582 5581 5581 5580 5578 5577 5576 5576 5575 5575 5575 5574 5574 5574 5574 5575 5576 5577 5578 5580
5585 5584 5583 5581 5580 5579 5577 5576 5575 5574 5574 5573 5573 5572 5571 5570 5569 5568 5567 5566 5565 5564 5562 5562 5561 5560 5560 5559 5558 5558 5558 5558 5558 5558 5560 5561 5563 5564
5571 5569 5568 5566 5565 5564 5563 5562 5561 5560 5559 5558 5558 5557 5555 5554 5553 5553 5552 5551 5550 5548 5546 5547 5546 5545 5544 5543 5543 5542 5542 5542 5542 5543 5544 5545 5546 5548
5556 5554 5553 5552 5550 5549 5548 5548 5547 5546 5544 5543 5542 5542 5540 5539 5538 5538 5537 5536 5536 5534 5532 5532 5531 5530 5530 5529 5528 5527 5527 5527 5527 5528 5528 5529 5531 5532
5542 5540 5538 5537 5536 5534 5534 5533 5533 5532 5531 5530 5529 5528 5526 5525 5524 5523 5522 5521 5520 5520 5519 5517 5517 5516 5516 5515 5514 5513 5512 5512 5513 5513 5513 5514 5515 5516
5527 5526 5524 5522 5522 5521 5520 5520 5519 5518 5517 5516 5516 5514 5513 5512 5510 5509 5508 5507 5506 5506 5505 5503 5503 5502 5501 5502 5501 5500 5499 5499 5499 5498 5498 5498 5499 5500
5513 5512 5510 5509 5508 5508 5507 5506 5505 5504 5504 5503 5503 5501 5500 5499 5498 5496 5495 5494 5493 5492 5491 5490 5490 5489 5488 5488 5489 5488 5487 5486 5486 5485 5485 5484 5484 5484
5499 5498 5497 5496 5496 5495 5494 5493 5493 5492 5492 5491 5490 5489 5488 5487 5486 5485 5484 5482 5481 5480 5479 5478 5477 5477 5476 5476 5476 5475 5475 5474 5473 5472 5471 5470 5470 5470
5486 5485 5485 5484 5484 5483 5482 5481 5480 5480 5479 5479 5478 5477 5476 5475 5474 5473 5472 5471 5471 5470 5468 5467 5465 5465 5464 5463 5463 5462 5462 5461 5460 5459 5458 5457 5455 5455
5474 5474 5473 5473 5472 5472 5471 5470 5469 5469 5468 5467 5467 5466 5465 5464 5463 5462 5461 5460 5460 5459 5458 5456 5454 5453 5452 5451 5451 5450 5449 5448 5447 5445 5444 5444 5442 5441
5463 5463 5462 5462 5461 5460 5460 5459 5459 5458 5457 5456 5456 5455 5454 5453 5453 5452 5450 5450 5449 5448 5447 5445 5444 5443 5442 5440 5439 5438 5437 5436 5434 5433 5431 5430 5430 5429
5451 5451 5451 5451 5450 5450 5449 5449 5448 5447 5446 5446 5445 5444 5444 5443 5442 5441 5440 5439 5438 5437 5436 5435 5433 5432 5431 5431 5429 5426 5425 5424 5422 5421 5419 5418 5417 5416
5441 5441 5440 5440 5440 5440 5439 5439 5438 5437 5436 5436 5435 5434 5433 5433 5432 5431 5430 5429 5428 5427 5426 5425 5423 5422 5421 5420 5419 5417 5414 5412 5411 5409 5408 5406 5405 5404
5430 5430 5430 5430 5430 5430 5429 5429 5428 5428 5427 5426 5425 5425 5424 5423 5422 5422 5421 5420 5419 5417 5416 5415 5414 5412 5411 5409 5408 5407 5404 5401 5399 5397 5396 5395 5395 5394
5421 5421 5421 5421 5420 5420 5420 5419 5419 5418 5418 5417 5416 5415 5414 5414 5413 5413 5412 5411 5410 5408 5407 5406 5404 5403 5402 5400 5398 5396 5394 5392 5389 5386 5384 5383 5382 5382
5412 5411 5411 5411 5411 5411 5411 5410 5410 5410 5409 5408 5407 5406 5406 5405 5405 5404 5403 5402 5401 5400 5398 5397 5395 5394 5392 5391 5389 5387 5385 5383 5380 5378 5375 5372 5371 5369